ITY4221 LFMN-LIRF

Flight info

Callsign ITY4221
Flight time 0h 47m
Altitude 29000
Route SODRI DCT RAPUR DCT RATAP DCT BTA/N0415F280 DCT MOULE DCT XOPTA DCT ELB DCT ELKAP
Aircraft A320/M-SDE3FGHIRWY/LB1

Departure

Time 2026-05-06 10:02
Airport Nice-Côte d'Azur Airport (LFMN)

Arrival

Time 2026-05-06 10:49
Airport Rome–Fiumicino Leonardo da Vinci International Airport (LIRF)
Time Latitude Longitude Altitude Speed Heading
2026-05-06 09:47 43.66412 7.21234 22 ft 0 kts 344°
2026-05-06 09:53 43.66394 7.21241 22 ft 4 kts 347°
2026-05-06 09:54 43.66368 7.21247 22 ft 4 kts 356°
2026-05-06 09:54 43.66342 7.21245 22 ft 4 kts 26°
2026-05-06 09:54 43.66329 7.21229 22 ft 1 kts 81°
2026-05-06 09:54 43.66329 7.21224 22 ft 0 kts 81°
2026-05-06 09:56 43.66336 7.21287 22 ft 12 kts 81°
2026-05-06 09:57 43.66349 7.21398 22 ft 11 kts 78°
2026-05-06 09:57 43.66367 7.21499 22 ft 12 kts 85°
2026-05-06 09:57 43.66330 7.21657 22 ft 19 kts 71°
2026-05-06 09:57 43.66410 7.21764 24 ft 15 kts 50°
2026-05-06 09:58 43.66475 7.21871 25 ft 14 kts 49°
2026-05-06 09:58 43.66539 7.21968 22 ft 13 kts 46°
2026-05-06 09:58 43.66604 7.22050 23 ft 12 kts 42°
2026-05-06 09:58 43.66665 7.22126 22 ft 11 kts 42°
2026-05-06 09:59 43.66731 7.22215 22 ft 14 kts 44°
2026-05-06 09:59 43.66794 7.22306 24 ft 13 kts 54°
2026-05-06 09:59 43.66796 7.22413 23 ft 11 kts 118°
2026-05-06 09:59 43.66742 7.22487 21 ft 11 kts 136°
2026-05-06 10:00 43.66692 7.22553 22 ft 9 kts 136°
2026-05-06 10:00 43.66650 7.22610 23 ft 8 kts 136°
2026-05-06 10:00 43.66586 7.22697 22 ft 19 kts 134°
2026-05-06 10:00 43.66488 7.22738 23 ft 15 kts 205°
2026-05-06 10:01 43.66462 7.22711 23 ft 0 kts 220°
2026-05-06 10:01 43.66374 7.22553 23 ft 58 kts 227°
2026-05-06 10:01 43.65835 7.21869 23 ft 149 kts 223°
2026-05-06 10:01 43.64953 7.20755 512 ft 184 kts 222°
2026-05-06 10:02 43.64032 7.19508 1690 ft 190 kts 224°
2026-05-06 10:02 43.63069 7.18162 2497 ft 202 kts 224°
2026-05-06 10:02 43.62067 7.16760 3379 ft 207 kts 225°
2026-05-06 10:02 43.60890 7.15607 4256 ft 212 kts 198°
2026-05-06 10:03 43.59412 7.15572 5105 ft 222 kts 163°
2026-05-06 10:03 43.58030 7.16555 6050 ft 225 kts 153°
2026-05-06 10:03 43.56673 7.17645 6959 ft 227 kts 152°
2026-05-06 10:03 43.55351 7.18894 7832 ft 234 kts 140°
2026-05-06 10:04 43.54241 7.20572 8700 ft 239 kts 135°
2026-05-06 10:04 43.53134 7.22299 9563 ft 242 kts 135°
2026-05-06 10:04 43.52005 7.24041 10409 ft 246 kts 136°
2026-05-06 10:04 43.50864 7.25787 11238 ft 249 kts 137°
2026-05-06 10:05 43.49694 7.27574 12057 ft 253 kts 137°
2026-05-06 10:05 43.48509 7.29390 12873 ft 257 kts 138°
2026-05-06 10:05 43.47246 7.31129 13660 ft 256 kts 149°
2026-05-06 10:05 43.45711 7.32456 14101 ft 271 kts 158°
2026-05-06 10:06 43.43978 7.33752 14401 ft 295 kts 158°
2026-05-06 10:06 43.42104 7.35143 14652 ft 318 kts 158°
2026-05-06 10:06 43.40083 7.36650 14863 ft 341 kts 157°
2026-05-06 10:06 43.37965 7.38249 15432 ft 351 kts 157°
2026-05-06 10:07 43.35813 7.39893 16128 ft 356 kts 156°
2026-05-06 10:07 43.33642 7.41555 16833 ft 360 kts 157°
2026-05-06 10:07 43.31441 7.43238 17526 ft 363 kts 157°
2026-05-06 10:07 43.29223 7.44930 18202 ft 367 kts 157°
2026-05-06 10:08 43.26977 7.46639 18872 ft 371 kts 158°
2026-05-06 10:08 43.24710 7.48357 19555 ft 374 kts 158°
2026-05-06 10:08 43.22422 7.50087 20215 ft 377 kts 158°
2026-05-06 10:08 43.20121 7.51830 20865 ft 380 kts 158°
2026-05-06 10:09 43.17796 7.53587 21486 ft 383 kts 158°
2026-05-06 10:09 43.15458 7.55363 22111 ft 387 kts 156°
2026-05-06 10:09 43.13258 7.57599 22708 ft 402 kts 144°
2026-05-06 10:09 43.11432 7.60508 23250 ft 417 kts 131°
2026-05-06 10:10 43.10067 7.64137 23799 ft 432 kts 116°
2026-05-06 10:10 43.09343 7.68130 24307 ft 444 kts 105°
2026-05-06 10:10 43.08840 7.72318 24799 ft 448 kts 105°
2026-05-06 10:10 43.08334 7.76525 25289 ft 450 kts 105°
2026-05-06 10:11 43.07821 7.80764 25747 ft 453 kts 105°
2026-05-06 10:11 43.07321 7.85035 26195 ft 456 kts 105°
2026-05-06 10:11 43.06833 7.89328 26625 ft 459 kts 105°
2026-05-06 10:11 43.06350 7.93668 27038 ft 462 kts 105°
2026-05-06 10:12 43.05863 7.98020 27426 ft 464 kts 105°
2026-05-06 10:12 43.05367 8.02387 27816 ft 467 kts 105°
2026-05-06 10:12 43.04864 8.06783 28216 ft 469 kts 105°
2026-05-06 10:12 43.04353 8.11200 28592 ft 471 kts 105°
2026-05-06 10:13 43.03838 8.15625 28856 ft 473 kts 105°
2026-05-06 10:13 43.03326 8.20033 28912 ft 463 kts 105°
2026-05-06 10:13 43.02329 8.28612 28924 ft 453 kts 105°
2026-05-06 10:14 43.01074 8.36974 28935 ft 443 kts 116°
2026-05-06 10:14 42.98618 8.44052 28934 ft 433 kts 126°
2026-05-06 10:15 42.95730 8.51396 28934 ft 433 kts 125°
2026-05-06 10:15 42.92890 8.58654 28930 ft 433 kts 125°
2026-05-06 10:16 42.90044 8.65889 28928 ft 433 kts 125°
2026-05-06 10:16 42.87185 8.73116 28930 ft 433 kts 126°
2026-05-06 10:17 42.84324 8.80325 28930 ft 432 kts 126°
2026-05-06 10:17 42.81463 8.87541 28924 ft 433 kts 125°
2026-05-06 10:18 42.78588 8.94740 28921 ft 433 kts 126°
2026-05-06 10:18 42.75706 9.01951 28923 ft 433 kts 125°
2026-05-06 10:19 42.72823 9.09156 28924 ft 433 kts 125°
2026-05-06 10:19 42.69939 9.16345 28922 ft 433 kts 126°
2026-05-06 10:20 42.67045 9.23536 28923 ft 434 kts 125°
2026-05-06 10:20 42.64149 9.30709 28927 ft 433 kts 126°
2026-05-06 10:21 42.61249 9.37866 28924 ft 432 kts 125°
2026-05-06 10:21 42.58925 9.45021 28914 ft 443 kts 110°
2026-05-06 10:22 42.58418 9.49230 28912 ft 452 kts 98°
2026-05-06 10:22 42.58506 9.53521 28911 ft 459 kts 86°
2026-05-06 10:22 42.59893 9.61971 28910 ft 462 kts 80°
2026-05-06 10:23 42.61130 9.69084 28909 ft 462 kts 80°
2026-05-06 10:23 42.62822 9.78962 28911 ft 463 kts 81°
2026-05-06 10:24 42.64037 9.86089 28916 ft 462 kts 81°
2026-05-06 10:24 42.65489 9.94576 28924 ft 462 kts 81°
2026-05-06 10:25 42.66934 10.03016 28931 ft 462 kts 80°
2026-05-06 10:25 42.68378 10.11538 28941 ft 462 kts 80°
2026-05-06 10:26 42.69807 10.20054 28947 ft 462 kts 81°
2026-05-06 10:26 42.71230 10.28577 28961 ft 462 kts 80°
2026-05-06 10:27 42.72631 10.37101 28956 ft 461 kts 84°
2026-05-06 10:27 42.72845 10.45693 28958 ft 453 kts 98°
2026-05-06 10:28 42.72502 10.54258 28961 ft 453 kts 97°
2026-05-06 10:28 42.71797 10.62713 28971 ft 446 kts 110°
2026-05-06 10:29 42.69410 10.70317 28969 ft 432 kts 128°
2026-05-06 10:29 42.66229 10.77237 28968 ft 432 kts 128°
2026-05-06 10:30 42.64647 10.80689 28495 ft 430 kts 128°
2026-05-06 10:30 42.63069 10.84135 27920 ft 427 kts 128°
2026-05-06 10:30 42.61528 10.87498 27284 ft 425 kts 128°
2026-05-06 10:30 42.59983 10.90865 26866 ft 417 kts 127°
2026-05-06 10:31 42.58452 10.94194 26286 ft 415 kts 128°
2026-05-06 10:31 42.56927 10.97496 25733 ft 411 kts 127°
2026-05-06 10:31 42.55417 11.00762 25197 ft 408 kts 127°
2026-05-06 10:31 42.53917 11.04007 24668 ft 404 kts 127°
2026-05-06 10:32 42.52427 11.07224 24141 ft 401 kts 127°
2026-05-06 10:32 42.50963 11.10382 23362 ft 393 kts 127°
2026-05-06 10:32 42.49537 11.13460 22838 ft 377 kts 127°
2026-05-06 10:32 42.48171 11.16410 22380 ft 362 kts 127°
2026-05-06 10:33 42.46849 11.19262 21931 ft 356 kts 127°
2026-05-06 10:33 42.45500 11.22168 21498 ft 374 kts 126°
2026-05-06 10:33 42.44361 11.25315 21131 ft 372 kts 115°
2026-05-06 10:33 42.43676 11.28713 20623 ft 376 kts 103°
2026-05-06 10:34 42.43300 11.32213 20110 ft 376 kts 102°
2026-05-06 10:34 42.42919 11.35719 19579 ft 376 kts 102°
2026-05-06 10:34 42.42531 11.39222 19054 ft 377 kts 102°
2026-05-06 10:34 42.42141 11.42682 18534 ft 377 kts 102°
2026-05-06 10:35 42.41745 11.46184 18005 ft 376 kts 102°
2026-05-06 10:35 42.41348 11.49674 17482 ft 376 kts 102°
2026-05-06 10:35 42.40947 11.53167 16955 ft 375 kts 101°
2026-05-06 10:35 42.40547 11.56654 16428 ft 374 kts 101°
2026-05-06 10:36 42.40146 11.60126 15902 ft 374 kts 102°
2026-05-06 10:36 42.39711 11.63592 15374 ft 373 kts 102°
2026-05-06 10:36 42.39251 11.67043 14848 ft 372 kts 102°
2026-05-06 10:36 42.38784 11.70481 14322 ft 371 kts 102°
2026-05-06 10:37 42.38319 11.73909 13793 ft 370 kts 102°
2026-05-06 10:37 42.37861 11.77323 13266 ft 368 kts 102°
2026-05-06 10:37 42.37409 11.80721 12742 ft 366 kts 102°
2026-05-06 10:37 42.36961 11.84098 12212 ft 362 kts 102°
2026-05-06 10:38 42.36527 11.87372 11682 ft 345 kts 101°
2026-05-06 10:38 42.36064 11.90480 11157 ft 330 kts 110°
2026-05-06 10:38 42.34995 11.93097 10626 ft 311 kts 135°
2026-05-06 10:38 42.33331 11.94804 10112 ft 294 kts 158°
2026-05-06 10:39 42.31445 11.95698 9589 ft 282 kts 165°
2026-05-06 10:39 42.29599 11.96483 9077 ft 276 kts 164°
2026-05-06 10:39 42.27800 11.97242 8980 ft 262 kts 163°
2026-05-06 10:39 42.26104 11.97957 8884 ft 250 kts 163°
2026-05-06 10:40 42.24480 11.98644 8768 ft 239 kts 163°
2026-05-06 10:40 42.22929 11.99302 8647 ft 228 kts 163°
2026-05-06 10:40 42.21432 11.99937 8405 ft 224 kts 163°
2026-05-06 10:40 42.19953 12.00565 8106 ft 222 kts 163°
2026-05-06 10:41 42.18479 12.01188 7779 ft 221 kts 163°
2026-05-06 10:41 42.17014 12.01809 7471 ft 220 kts 163°
2026-05-06 10:41 42.15561 12.02426 7163 ft 219 kts 163°
2026-05-06 10:41 42.14105 12.03045 6842 ft 219 kts 162°
2026-05-06 10:42 42.12648 12.03667 6527 ft 219 kts 162°
2026-05-06 10:42 42.11259 12.04468 6209 ft 218 kts 149°
2026-05-06 10:42 42.09968 12.05530 5896 ft 217 kts 149°
2026-05-06 10:42 42.09113 12.06231 5673 ft 217 kts 149°
2026-05-06 10:43 42.08048 12.07096 5427 ft 218 kts 149°
2026-05-06 10:43 42.06744 12.08154 5116 ft 220 kts 149°
2026-05-06 10:43 42.05434 12.09220 4798 ft 220 kts 149°
2026-05-06 10:44 42.02809 12.11361 4154 ft 219 kts 149°
2026-05-06 10:44 42.01507 12.12420 3838 ft 219 kts 149°
2026-05-06 10:44 42.00183 12.13492 3524 ft 220 kts 149°
2026-05-06 10:44 41.98888 12.14543 3300 ft 218 kts 149°
2026-05-06 10:45 41.97628 12.15568 3220 ft 207 kts 150°
2026-05-06 10:45 41.96332 12.16369 3021 ft 204 kts 160°
2026-05-06 10:45 41.95011 12.16973 2775 ft 201 kts 162°
2026-05-06 10:45 41.93671 12.17544 2502 ft 198 kts 162°
2026-05-06 10:46 41.92382 12.18086 2245 ft 191 kts 162°
2026-05-06 10:46 41.91123 12.18614 1984 ft 186 kts 162°
2026-05-06 10:46 41.89912 12.19125 1766 ft 178 kts 162°
2026-05-06 10:46 41.88775 12.19603 1533 ft 166 kts 162°
2026-05-06 10:47 41.87703 12.20053 1301 ft 157 kts 162°
2026-05-06 10:47 41.86687 12.20479 1115 ft 143 kts 162°
2026-05-06 10:47 41.85783 12.20859 922 ft 131 kts 162°
2026-05-06 10:47 41.84946 12.21211 747 ft 126 kts 162°
2026-05-06 10:48 41.84118 12.21558 585 ft 124 kts 162°
2026-05-06 10:48 41.83297 12.21903 413 ft 123 kts 162°
2026-05-06 10:48 41.82477 12.22247 258 ft 124 kts 162°
2026-05-06 10:48 41.81651 12.22593 93 ft 124 kts 162°
2026-05-06 10:49 41.80855 12.22928 16 ft 105 kts 162°
2026-05-06 10:49 41.80321 12.23156 16 ft 57 kts 162°
2026-05-06 10:49 41.79997 12.23299 18 ft 26 kts 161°
2026-05-06 10:49 41.79859 12.23361 16 ft 22 kts 161°
2026-05-06 10:50 41.79734 12.23414 15 ft 23 kts 162°
2026-05-06 10:50 41.79547 12.23524 14 ft 31 kts 146°
2026-05-06 10:50 41.79424 12.23659 15 ft 19 kts 135°
2026-05-06 10:50 41.79343 12.23791 15 ft 17 kts 119°
2026-05-06 10:51 41.79394 12.23865 15 ft 12 kts
2026-05-06 10:51 41.79478 12.23839 15 ft 13 kts 342°
2026-05-06 10:51 41.79559 12.23803 14 ft 12 kts 341°
2026-05-06 10:51 41.79636 12.23769 14 ft 11 kts 341°
2026-05-06 10:52 41.79710 12.23734 14 ft 11 kts 341°
2026-05-06 10:52 41.79790 12.23710 14 ft 16 kts 11°
2026-05-06 10:52 41.79860 12.23833 14 ft 18 kts 69°
2026-05-06 10:52 41.79908 12.24005 14 ft 21 kts 71°
2026-05-06 10:53 41.79927 12.24210 14 ft 22 kts 76°
2026-05-06 10:53 41.79975 12.24394 14 ft 21 kts 69°
2026-05-06 10:53 41.80028 12.24584 13 ft 19 kts 68°
2026-05-06 10:53 41.80058 12.24730 14 ft 13 kts 102°
2026-05-06 10:54 41.79991 12.24815 14 ft 15 kts 156°
2026-05-06 10:54 41.79887 12.24872 14 ft 17 kts 158°
2026-05-06 10:54 41.79823 12.24904 14 ft 7 kts 159°
2026-05-06 10:54 41.79788 12.24887 15 ft 5 kts 230°
2026-05-06 10:55 41.79775 12.24847 14 ft 4 kts 250°
2026-05-06 10:55 41.79769 12.24824 14 ft 0 kts 250°
2026-05-06 11:06 41.79767 12.24819 14 ft 0 kts 250°